| time (UTC) | temp F | wind direction | speed MPH | gust MPH | rain 1hr in | rain 24hr in | rain mn in | humidity % | barometer mb |
| 20260504204948 | 68 | 166 | 4.0 | 6.0 | 0.00 | 0.00 | 0.00 | 49 | 1013.1 |
| 20260504204446 | 68 | 283 | 3.0 | 6.0 | 0.00 | 0.00 | 0.00 | 49 | 1012.9 |
| 20260504203945 | 68 | 198 | 4.0 | 7.0 | 0.00 | 0.00 | 0.00 | 49 | 1013.0 |
| 20260504203442 | 69 | 184 | 4.0 | 7.0 | 0.00 | 0.00 | 0.00 | 50 | 1012.9 |
| 20260504202938 | 69 | 331 | 2.0 | 7.0 | 0.00 | 0.00 | 0.00 | 49 | 1012.9 |
| 20260504202435 | 68 | 301 | 2.0 | 6.0 | 0.00 | 0.00 | 0.00 | 51 | 1012.9 |
| 20260504201932 | 68 | 109 | 4.0 | 4.0 | 0.00 | 0.00 | 0.00 | 51 | 1013.0 |
| 20260504201429 | 69 | 254 | 4.0 | 6.0 | 0.00 | 0.00 | 0.00 | 50 | 1012.8 |
| 20260504200926 | 69 | 174 | 2.0 | 6.0 | 0.00 | 0.00 | 0.00 | 52 | 1012.9 |
| 20260504200423 | 68 | 216 | 4.0 | 7.0 | 0.00 | 0.00 | 0.00 | 52 | 1013.0 |
| 20260504195920 | 68 | 195 | 2.0 | 4.0 | 0.00 | 0.00 | 0.00 | 52 | 1013.0 |
| 20260504195416 | 69 | 190 | 3.0 | 4.0 | 0.00 | 0.00 | 0.00 | 51 | 1013.2 |
| 20260504194912 | 69 | 162 | 3.0 | 4.0 | 0.00 | 0.00 | 0.00 | 50 | 1013.4 |
| 20260504194408 | 69 | 172 | 2.0 | 4.0 | 0.00 | 0.00 | 0.00 | 50 | 1013.2 |
| 20260504193904 | 70 | 241 | 1.0 | 4.0 | 0.00 | 0.00 | 0.00 | 49 | 1013.3 |
| 20260504193402 | 71 | 244 | 2.0 | 4.0 | 0.00 | 0.00 | 0.00 | 47 | 1013.4 |
| 20260504192900 | 71 | 246 | 1.0 | 6.0 | 0.00 | 0.00 | 0.00 | 46 | 1013.2 |
| 20260504192357 | 73 | 144 | 5.0 | 6.0 | 0.00 | 0.00 | 0.00 | 45 | 1013.3 |
| 20260504191856 | 74 | 226 | 2.0 | 3.0 | 0.00 | 0.00 | 0.00 | 34 | 1013.6 |
| 20260504191354 | 74 | 273 | 5.0 | 7.0 | 0.00 | 0.00 | 0.00 | 32 | 1013.6 |
| 20260504190849 | 74 | 303 | 4.0 | 8.0 | 0.00 | 0.00 | 0.00 | 33 | 1013.7 |
| 20260504190345 | 74 | 335 | 2.0 | 2.0 | 0.00 | 0.00 | 0.00 | 33 | 1013.6 |
| 20260504185842 | 74 | 264 | 3.0 | 8.0 | 0.00 | 0.00 | 0.00 | 32 | 1013.9 |
| 20260504185339 | 74 | 353 | 2.0 | 4.0 | 0.00 | 0.00 | 0.00 | 33 | 1013.6 |
| 20260504184834 | 74 | 188 | 3.0 | 6.0 | 0.00 | 0.00 | 0.00 | 34 | 1013.7 |
| 20260504184331 | 73 | 88 | 2.0 | 4.0 | 0.00 | 0.00 | 0.00 | 33 | 1013.8 |
| 20260504183826 | 73 | 196 | 5.0 | 9.0 | 0.00 | 0.00 | 0.00 | 33 | 1013.9 |
| 20260504183324 | 74 | 203 | 9.0 | 11.0 | 0.00 | 0.00 | 0.00 | 33 | 1014.0 |
| 20260504182822 | 74 | 247 | 1.0 | 7.0 | 0.00 | 0.00 | 0.00 | 35 | 1014.0 |
| 20260504182319 | 74 | 112 | 4.0 | 4.0 | 0.00 | 0.00 | 0.00 | 33 | 1014.2 |
| 20260504181816 | 73 | 333 | 2.0 | 7.0 | 0.00 | 0.00 | 0.00 | 34 | 1014.2 |
| 20260504181314 | 73 | 252 | 1.0 | 6.0 | 0.00 | 0.00 | 0.00 | 34 | 1014.2 |
| 20260504180812 | 73 | 265 | 2.0 | 6.0 | 0.00 | 0.00 | 0.00 | 34 | 1014.3 |
| 20260504180310 | 73 | 316 | 1.0 | 3.0 | 0.00 | 0.00 | 0.00 | 35 | 1014.5 |
| 20260504175808 | 73 | 338 | 2.0 | 10.0 | 0.00 | 0.00 | 0.00 | 34 | 1014.2 |
| 20260504175305 | 73 | 162 | 2.0 | 4.0 | 0.00 | 0.00 | 0.00 | 35 | 1014.4 |
| 20260504174803 | 73 | 176 | 2.0 | 6.0 | 0.00 | 0.00 | 0.00 | 34 | 1014.5 |
| 20260504174300 | 72 | 283 | 3.0 | 6.0 | 0.00 | 0.00 | 0.00 | 35 | 1014.5 |
| 20260504173756 | 72 | 237 | 1.0 | 4.0 | 0.00 | 0.00 | 0.00 | 35 | 1014.6 |
| 20260504173253 | 71 | 322 | 1.0 | 8.0 | 0.00 | 0.00 | 0.00 | 35 | 1014.8 |
| 20260504172750 | 73 | 111 | 3.0 | 10.0 | 0.00 | 0.00 | 0.00 | 34 | 1014.8 |
| 20260504172247 | 72 | 279 | 1.0 | 2.0 | 0.00 | 0.00 | 0.00 | 36 | 1014.7 |
| 20260504171743 | 72 | 347 | 2.0 | 3.0 | 0.00 | 0.00 | 0.00 | 35 | 1014.9 |
| 20260504171240 | 71 | 292 | 1.0 | 7.0 | 0.00 | 0.00 | 0.00 | 35 | 1015.1 |
| 20260504170737 | 70 | 195 | 4.0 | 11.0 | 0.00 | 0.00 | 0.00 | 34 | 1014.9 |
| 20260504170234 | 71 | 234 | 7.0 | 10.0 | 0.00 | 0.00 | 0.00 | 34 | 1015.0 |
| 20260504160153 | 70 | 278 | 2.0 | 8.0 | 0.00 | 0.00 | 0.00 | 37 | 1015.8 |
| 20260504151120 | 68 | 322 | 2.0 | 3.0 | 0.00 | 0.00 | 0.00 | 38 | 1016.2 |
| 20260504150618 | 68 | 245 | 3.0 | 6.0 | 0.00 | 0.00 | 0.00 | 38 | 1016.3 |
| 20260504150115 | 67 | 241 | 3.0 | 7.0 | 0.00 | 0.00 | 0.00 | 39 | 1016.3 |
| 20260504141043 | 65 | 248 | 1.0 | 15.0 | 0.00 | 0.00 | 0.00 | 40 | 1016.7 |
| 20260504140540 | 66 | 311 | 2.0 | 6.0 | 0.00 | 0.00 | 0.00 | 41 | 1016.5 |
| 20260504130504 | 62 | 307 | 1.0 | 2.0 | 0.00 | 0.00 | 0.00 | 53 | 1017.1 |
| 20260504110351 | 51 | 326 | 1.0 | 8.0 | 0.00 | 0.00 | 0.00 | 67 | 1017.9 |
| 20260504100309 | 49 | 268 | 1.0 | 6.0 | 0.00 | 0.00 | 0.00 | 64 | 1017.8 |
| 20260504081702 | 48 | 268 | 0.0 | 7.0 | 0.00 | 0.00 | 0.00 | 60 | 1017.5 |
| 20260504081158 | 47 | 312 | 0.0 | 1.0 | 0.00 | 0.00 | 0.00 | 61 | 1017.4 |
| 20260504080655 | 47 | 228 | 0.0 | 1.0 | 0.00 | 0.00 | 0.00 | 61 | 1017.3 |
| 20260504080152 | 47 | 325 | 0.0 | 0.0 | 0.00 | 0.00 | 0.00 | 60 | 1017.3 |
| 20260504070119 | 47 | 290 | 0.0 | 1.0 | 0.00 | 0.00 | 0.00 | 59 | 1017.1 |
| 20260504050508 | 48 | 352 | 0.0 | 1.0 | 0.00 | 0.00 | 0.00 | 56 | 1016.8 |
| 20260504050005 | 48 | 319 | 0.0 | 1.0 | 0.00 | 0.00 | 0.00 | 56 | 1016.7 |
| 20260504045501 | 48 | 325 | 0.0 | 0.0 | 0.00 | 0.00 | 0.00 | 55 | 1016.7 |
| 20260504044957 | 48 | 326 | 0.0 | 0.0 | 0.00 | 0.00 | 0.00 | 55 | 1016.8 |
| 20260504044454 | 49 | 328 | 0.0 | 0.0 | 0.00 | 0.00 | 0.00 | 55 | 1016.7 |
| 20260504043951 | 49 | 323 | 0.0 | 1.0 | 0.00 | 0.00 | 0.00 | 55 | 1016.6 |
| 20260504043448 | 48 | 312 | 0.0 | 2.0 | 0.00 | 0.00 | 0.00 | 55 | 1016.8 |
| 20260504042946 | 48 | 323 | 0.0 | 1.0 | 0.00 | 0.00 | 0.00 | 55 | 1016.8 |
| 20260504042442 | 48 | 277 | 1.0 | 1.0 | 0.00 | 0.00 | 0.00 | 56 | 1016.5 |
| 20260504041939 | 48 | 325 | 0.0 | 1.0 | 0.00 | 0.00 | 0.00 | 56 | 1016.7 |
| 20260504041435 | 48 | 315 | 0.0 | 1.0 | 0.00 | 0.00 | 0.00 | 56 | 1016.8 |
| 20260504040931 | 48 | 317 | 0.0 | 0.0 | 0.00 | 0.00 | 0.00 | 56 | 1016.6 |
| 20260504040429 | 47 | 319 | 0.0 | 0.0 | 0.00 | 0.00 | 0.00 | 56 | 1016.6 |
| 20260504035925 | 47 | 316 | 0.0 | 1.0 | 0.00 | 0.00 | 0.00 | 56 | 1016.6 |
| 20260504035423 | 47 | 315 | 0.0 | 0.0 | 0.00 | 0.00 | 0.00 | 55 | 1016.3 |
| 20260504034919 | 48 | 324 | 0.0 | 0.0 | 0.00 | 0.00 | 0.00 | 55 | 1016.3 |
| 20260504034417 | 48 | 320 | 0.0 | 0.0 | 0.00 | 0.00 | 0.00 | 54 | 1016.4 |
| 20260504033914 | 48 | 320 | 0.0 | 0.0 | 0.00 | 0.00 | 0.00 | 54 | 1016.3 |
| 20260504033412 | 49 | 320 | 0.0 | 0.0 | 0.00 | 0.00 | 0.00 | 54 | 1016.1 |
| 20260504032908 | 48 | 314 | 1.0 | 3.0 | 0.00 | 0.00 | 0.00 | 55 | 1016.4 |
| 20260504032405 | 48 | 338 | 0.0 | 0.0 | 0.00 | 0.00 | 0.00 | 55 | 1016.2 |
| 20260504031901 | 48 | 257 | 1.0 | 1.0 | 0.00 | 0.00 | 0.00 | 55 | 1016.2 |
| 20260504031359 | 48 | 276 | 1.0 | 1.0 | 0.00 | 0.00 | 0.00 | 56 | 1016.3 |
| 20260504030855 | 48 | 289 | 0.0 | 1.0 | 0.00 | 0.00 | 0.00 | 56 | 1016.3 |
| 20260504030353 | 47 | 293 | 0.0 | 0.0 | 0.00 | 0.00 | 0.00 | 56 | 1016.1 |
| 20260504025848 | 47 | 323 | 0.0 | 0.0 | 0.00 | 0.00 | 0.00 | 56 | 1016.1 |
| 20260504025346 | 48 | 327 | 0.0 | 0.0 | 0.00 | 0.00 | 0.00 | 55 | 1016.1 |
| 20260504024842 | 48 | 340 | 0.0 | 0.0 | 0.00 | 0.00 | 0.00 | 55 | 1016.2 |
| 20260504024339 | 48 | 324 | 0.0 | 0.0 | 0.00 | 0.00 | 0.00 | 55 | 1016.2 |
| 20260504023836 | 47 | 320 | 0.0 | 0.0 | 0.00 | 0.00 | 0.00 | 56 | 1016.3 |
| 20260504023333 | 48 | 323 | 0.0 | 0.0 | 0.00 | 0.00 | 0.00 | 56 | 1016.2 |
| 20260504022828 | 48 | 318 | 0.0 | 0.0 | 0.00 | 0.00 | 0.00 | 56 | 1016.2 |
| 20260504022325 | 48 | 324 | 0.0 | 0.0 | 0.00 | 0.00 | 0.00 | 56 | 1016.3 |
| 20260504021821 | 48 | 321 | 0.0 | 1.0 | 0.00 | 0.00 | 0.00 | 56 | 1016.3 |
| 20260504021319 | 47 | 325 | 0.0 | 0.0 | 0.00 | 0.00 | 0.00 | 56 | 1016.2 |
| 20260504020816 | 48 | 324 | 0.0 | 0.0 | 0.00 | 0.00 | 0.00 | 56 | 1016.3 |
| 20260504020313 | 48 | 319 | 0.0 | 0.0 | 0.00 | 0.00 | 0.00 | 56 | 1016.3 |
| 20260504015809 | 48 | 328 | 0.0 | 0.0 | 0.00 | 0.00 | 0.00 | 56 | 1016.2 |
| 20260504015305 | 48 | 320 | 0.0 | 0.0 | 0.00 | 0.00 | 0.00 | 55 | 1016.3 |
| 20260504014801 | 48 | 322 | 0.0 | 0.0 | 0.00 | 0.00 | 0.00 | 55 | 1016.3 |
| 20260504014257 | 48 | 321 | 0.0 | 0.0 | 0.00 | 0.00 | 0.00 | 54 | 1016.0 |
| 20260504013755 | 48 | 315 | 0.0 | 0.0 | 0.00 | 0.00 | 0.00 | 54 | 1016.1 |
| 20260504013253 | 48 | 319 | 0.0 | 0.0 | 0.00 | 0.00 | 0.00 | 53 | 1016.0 |
| 20260504012749 | 48 | 322 | 0.0 | 0.0 | 0.00 | 0.00 | 0.00 | 52 | 1016.0 |
| 20260504012247 | 48 | 322 | 0.0 | 0.0 | 0.00 | 0.00 | 0.00 | 52 | 1016.0 |
| 20260504011744 | 49 | 317 | 0.0 | 0.0 | 0.00 | 0.00 | 0.00 | 52 | 1016.0 |
| 20260504011240 | 49 | 320 | 0.0 | 0.0 | 0.00 | 0.00 | 0.00 | 51 | 1015.8 |
| 20260504010736 | 49 | 319 | 0.0 | 0.0 | 0.00 | 0.00 | 0.00 | 50 | 1015.6 |
| 20260504010232 | 49 | 320 | 0.0 | 0.0 | 0.00 | 0.00 | 0.00 | 50 | 1015.6 |
| 20260504005729 | 50 | 321 | 0.0 | 0.0 | 0.00 | 0.00 | 0.00 | 49 | 1015.5 |
| 20260504005226 | 50 | 323 | 0.0 | 0.0 | 0.00 | 0.00 | 0.00 | 48 | 1015.5 |
| 20260504004724 | 50 | 319 | 0.0 | 0.0 | 0.00 | 0.00 | 0.00 | 48 | 1015.3 |
| 20260504004221 | 51 | 315 | 0.0 | 0.0 | 0.00 | 0.00 | 0.00 | 47 | 1015.3 |
| 20260504003717 | 51 | 318 | 0.0 | 0.0 | 0.00 | 0.00 | 0.00 | 46 | 1015.4 |
| 20260504003214 | 51 | 317 | 0.0 | 0.0 | 0.00 | 0.00 | 0.00 | 45 | 1015.3 |
| 20260504002711 | 52 | 319 | 0.0 | 0.0 | 0.00 | 0.00 | 0.00 | 44 | 1015.2 |
| 20260504002208 | 53 | 319 | 0.0 | 0.0 | 0.00 | 0.00 | 0.00 | 43 | 1015.1 |
| 20260504001706 | 53 | 318 | 0.0 | 0.0 | 0.00 | 0.00 | 0.00 | 42 | 1014.9 |
| 20260504001202 | 54 | 314 | 0.0 | 0.0 | 0.00 | 0.00 | 0.00 | 41 | 1014.9 |
| 20260504000659 | 54 | 313 | 0.0 | 0.0 | 0.00 | 0.00 | 0.00 | 40 | 1014.9 |
| 20260504000156 | 55 | 317 | 0.0 | 0.0 | 0.00 | 0.00 | 0.00 | 39 | 1014.7 |
| 20260503235654 | 55 | 321 | 0.0 | 0.0 | 0.00 | 0.00 | 0.00 | 38 | 1014.8 |
| 20260503235151 | 56 | 321 | 0.0 | 0.0 | 0.00 | 0.00 | 0.00 | 37 | 1014.8 |
| 20260503234649 | 56 | 309 | 0.0 | 1.0 | 0.00 | 0.00 | 0.00 | 36 | 1014.5 |
| 20260503234147 | 57 | 314 | 0.0 | 1.0 | 0.00 | 0.00 | 0.00 | 36 | 1014.7 |
| 20260503233643 | 57 | 319 | 0.0 | 2.0 | 0.00 | 0.00 | 0.00 | 36 | 1014.5 |
| 20260503233139 | 57 | 241 | 0.0 | 1.0 | 0.00 | 0.00 | 0.00 | 35 | 1014.6 |
| 20260503232636 | 58 | 330 | 0.0 | 1.0 | 0.00 | 0.00 | 0.00 | 35 | 1014.5 |
| 20260503232133 | 58 | 285 | 1.0 | 1.0 | 0.00 | 0.00 | 0.00 | 34 | 1014.7 |
| 20260503231632 | 58 | 250 | 1.0 | 2.0 | 0.00 | 0.00 | 0.00 | 34 | 1014.6 |
| 20260503231127 | 59 | 337 | 0.0 | 3.0 | 0.00 | 0.00 | 0.00 | 33 | 1014.6 |
| 20260503230625 | 59 | 350 | 0.0 | 3.0 | 0.00 | 0.00 | 0.00 | 33 | 1014.4 |
| 20260503230122 | 59 | 341 | 1.0 | 2.0 | 0.00 | 0.00 | 0.00 | 33 | 1014.4 |
| 20260503225620 | 59 | 210 | 0.0 | 2.0 | 0.00 | 0.00 | 0.00 | 33 | 1014.4 |
| 20260503225119 | 59 | 345 | 2.0 | 2.0 | 0.00 | 0.00 | 0.00 | 33 | 1014.3 |
| 20260503224617 | 59 | 350 | 3.0 | 3.0 | 0.00 | 0.00 | 0.00 | 33 | 1014.3 |
| 20260503224114 | 59 | 227 | 2.0 | 6.0 | 0.00 | 0.00 | 0.00 | 33 | 1014.2 |
| 20260503223612 | 59 | 283 | 1.0 | 2.0 | 0.00 | 0.00 | 0.00 | 33 | 1014.2 |
| 20260503223108 | 59 | 295 | 0.0 | 3.0 | 0.00 | 0.00 | 0.00 | 33 | 1014.1 |
| 20260503222606 | 60 | 318 | 1.0 | 6.0 | 0.00 | 0.00 | 0.00 | 33 | 1014.1 |
| 20260503222103 | 60 | 318 | 1.0 | 7.0 | 0.00 | 0.00 | 0.00 | 33 | 1014.3 |
| 20260503221601 | 60 | 339 | 1.0 | 4.0 | 0.00 | 0.00 | 0.00 | 32 | 1014.1 |
| 20260503221058 | 60 | 339 | 4.0 | 7.0 | 0.00 | 0.00 | 0.00 | 33 | 1014.2 |
| 20260503220554 | 60 | 233 | 2.0 | 4.0 | 0.00 | 0.00 | 0.00 | 32 | 1014.2 |
| 20260503220052 | 60 | 336 | 1.0 | 2.0 | 0.00 | 0.00 | 0.00 | 32 | 1014.0 |
| 20260503215549 | 60 | 331 | 2.0 | 8.0 | 0.00 | 0.00 | 0.00 | 32 | 1014.0 |
| 20260503215046 | 60 | 322 | 0.0 | 3.0 | 0.00 | 0.00 | 0.00 | 32 | 1014.0 |
| 20260503214544 | 60 | 334 | 2.0 | 10.0 | 0.00 | 0.00 | 0.00 | 32 | 1014.1 |
| 20260503214040 | 60 | 305 | 1.0 | 4.0 | 0.00 | 0.00 | 0.00 | 32 | 1014.2 |
| 20260503213539 | 60 | 322 | 1.0 | 7.0 | 0.00 | 0.00 | 0.00 | 32 | 1014.0 |
| 20260503213035 | 60 | 339 | 0.0 | 4.0 | 0.00 | 0.00 | 0.00 | 33 | 1014.1 |
| 20260503212532 | 60 | 12 | 4.0 | 6.0 | 0.00 | 0.00 | 0.00 | 33 | 1014.2 |
| 20260503212030 | 60 | 350 | 2.0 | 3.0 | 0.00 | 0.00 | 0.00 | 33 | 1014.0 |
| 20260503211526 | 60 | 355 | 2.0 | 4.0 | 0.00 | 0.00 | 0.00 | 32 | 1013.8 |
| 20260503211022 | 60 | 302 | 2.0 | 3.0 | 0.00 | 0.00 | 0.00 | 33 | 1013.9 |
| 20260503210519 | 60 | 234 | 2.0 | 6.0 | 0.00 | 0.00 | 0.00 | 33 | 1013.9 |
| 20260503210015 | 60 | 27 | 3.0 | 4.0 | 0.00 | 0.00 | 0.00 | 33 | 1013.9 |
| 20260503205512 | 60 | 223 | 2.0 | 7.0 | 0.00 | 0.00 | 0.00 | 33 | 1013.7 |